Tracking 19792 objects as of 15-Jul-2019
HD Live streaming from Space Station
objects crossing your sky now

FENGYUN 1C DEB

Track FENGYUN 1C DEB now!
10-day predictions


NORAD ID: 35204
Int'l Code: 1999-025DPL
Perigee: 788.6 km
Apogee: 871.0 km
Inclination: 98.9 °
Period: 101.4 minutes
Semi major axis: 7200 km
RCS: 0.0049 m2 (small)
Launch date: May 10, 1999
Source: People's Republic of China (PRC)
Launch site: Taiyaun Space Center, China (TSC)

Note: This is SATELLITE DEBRIS
aabbcc
Your satellite tracking list
Your tracking list is empty




NASA's NSSDC Master Catalog

Two Line Element Set (TLE):
1 35204U 99025DPL 19195.74633014 +.00000674 +00000-0 +32782-3 0  9994
2 35204 098.9053 292.9339 0057261 277.1863 237.7917 14.20798912574883
Source of the keplerian elements: AFSPC